Volver al catálogo

APSTAR 7

ActivoComunicacionesGEO
NORAD 38107·PAYLOAD·🇨🇳 China

Lanzado Mar 31, 2012 desde Xichang Satellite Launch Center

Loading…

TLE

ActualizadoSource: Space-Track

Época: Sep 14, 2026, 14:09 UTC

1 38107U 12013A   26257.59026774 -.00000109  00000-0  00000-0 0  9999
2 38107   0.0250 123.2107 0002535  45.9986 113.3649  1.00271900 52712

Sigue APSTAR 7 en tiempo real con AllMySat

Download on the App Store